Location: Rochester
(43.1610°N, 77.6109°W)
Time: 12:10:28
(UTC-05:00)

X-37B - Visible Passes

Search period start: 27 January 2021 00:00
Search period end: 06 February 2021 00:00
Orbit: 383 x 391 km, 45.1° (Epoch: 22 January)

Date Brightness Start Highest point End Pass type
(mag) Time Alt. Az. Time Alt. Az. Time Alt. Az.
27 Jan 0.6 18:18:55 10° WNW 18:22:06 67° N 18:23:57 22° E visible
27 Jan 3.9 19:55:38 10° W 19:56:15 14° W 19:56:15 14° W visible
28 Jan 0.7 18:57:11 10° WNW 19:00:22 66° SSW 19:00:44 58° SSE visible
29 Jan 0.5 17:58:48 10° WNW 18:01:59 86° NNE 18:05:11 10° ESE visible
29 Jan 3.0 19:35:44 10° W 19:37:39 22° SW 19:37:39 22° SW visible
30 Jan 1.7 18:37:08 10° W 18:40:09 40° SSW 18:42:23 16° SE visible
31 Jan 3.4 19:16:15 10° WSW 19:18:03 14° SW 19:19:38 11° S visible
01 Feb 2.9 18:17:14 10° W 18:19:52 24° SSW 18:22:32 10° SSE visible
03 Feb 3.7 17:57:46 10° WSW 17:59:32 14° SW 18:01:19 10° S visible
